Regional Weather Roundup
Issued by NWS

Home | Current Version | Previous Version | Graphics & Text | Print | Product List | Glossary On
Versions: 1 2 3 4 5 6 7 8 9 10 11 12 13 14 15 16 17 18 19 20 21 22 23 24 25 26 27 28 29 30 31 32 33 34 35 36 37 38 39 40 41 42 43 44 45 46 47 48 49 50
000
ASUS43 KMKX 030411
RWRWI

WISCONSIN REGIONAL WEATHER ROUNDUP
NATIONAL WEATHER SERVICE MILWAUKEE/SULLIVAN WI
1100 PM CDT SUN AUG 02 2015

NOTE: "FAIR" INDICATES FEW OR NO CLOUDS BELOW 12,000 FEET WITH NO
SIGNIFICANT WEATHER AND/OR OBSTRUCTIONS TO VISIBILITY.

WIZ001-002-006>008-014>016-023>028-030500-
NORTHWEST WISCONSIN

CITY           SKY/WX    TMP DP  RH WIND       PRES   REMARKS
SUPERIOR ARPT  CLOUDY    65  50  59 NW8       29.75S
ASHLAND        CLOUDY    59  51  75 SW5       29.74S
HAYWARD        PTCLDY    56  51  84 CALM      29.78R
SIREN          CLEAR     58  48  71 NW7       29.81R
CUMBERLAND     CLEAR     59  46  63 NW5       29.81R
RICE LAKE      CLEAR     61  49  64 W3        29.82R
CHETEK         CLEAR     64  51  63 W5        29.80R
LADYSMITH      CLEAR     64  52  65 NW6       29.79R
EAU CLAIRE     CLEAR     67  51  56 NW8       29.78R
MENOMONIE      CLEAR     68  50  52 NW10      29.80R
NEW RICHMOND   CLEAR     60  52  73 NW5       29.82R
OSCEOLA        CLEAR     64  52  64 CALM      29.84R
$$

WIZ003>005-009-010-017-018-030500-
NORTH CENTRAL WISCONSIN

CITY           SKY/WX    TMP DP  RH WIND       PRES   REMARKS
MANITOWISH WTR CLEAR     56  55  96 CALM      29.75R
ARBOR VITAE    CLEAR     60  53  78 NW5       29.75R
WOODRUFF       CLEAR     60  53  78 NW5       29.75R
RHINELANDER    PTCLDY    58  56  93 W7        29.75R
EAGLE RIVER    PTCLDY    58  55  90 W5        29.73S
LAND O LAKES   PTCLDY    61  51  69 NW5       29.74S
PHILLIPS       MOCLDY    61  53  74 NW3       29.76R
TOMAHAWK       MOCLDY    59  54  84 W5        29.76R
MEDFORD        CLOUDY    62  57  84 NW3       29.77R
MERRILL        NOT AVBL
$$

WIZ029-030-035-036-043>047-030500-
CENTRAL WISCONSIN

CITY           SKY/WX    TMP DP  RH WIND       PRES   REMARKS
WAUSAU         PTCLDY    67  57  70 NW3       29.73R
MOSINEE        PTCLDY    63  55  77 NW5       29.76R
MARSHFIELD     PTCLDY    65  56  72 NW6       29.76R
STEVENS POINT  PTCLDY    65  55  70 CALM      29.75R
WAUPACA        PTCLDY    69  63  81 NW3       29.73R
WAUTOMA        PTCLDY    68  60  75 W6        29.73R
WISC RAPIDS    CLEAR     69  57  65 N8        29.76R
CAMP DOUGLAS   PTCLDY    65  65 100 NW8       29.75R
$$

WIZ011>013-019>022-031-037>040-048>050-030500-
NORTHEAST WISCONSIN

CITY           SKY/WX    TMP DP  RH WIND       PRES   REMARKS
ANTIGO         CLEAR     59  57  91 W6        29.74S
SHAWANO        CLOUDY    67  64  91 W3        29.71R
OCONTO         CLOUDY    63  63 100 W3        29.68R
STURGEON BAY   MOCLDY    61  57  88 CALM      29.69S
GREEN BAY      CLOUDY    65  63  93 W5        29.69R
MANITOWOC      PTCLDY    64  60  87 MISG      29.68R
APPLETON       MOCLDY    66  59  77 NW12      29.71R
CLINTONVILLE   CLOUDY    68  57  68 NW6       29.70R
OSHKOSH        CLEAR     67  62  84 W6        29.69S
$$

WIZ032>034-041-042-053>061-030500-
SOUTHWEST WISCONSIN

CITY           SKY/WX    TMP DP  RH WIND       PRES   REMARKS
LA CROSSE      MOCLDY    75  61  61 NW9       29.76R
SPARTA         PTCLDY    73  56  56 W5        29.77R
VIROQUA        PTCLDY    70  60  71 N7        29.79R
BOSCOBEL       CLEAR     70  63  78 CALM      29.75R
PRAIRIE DU CHI CLEAR     76  59  55 NW10      29.76R
PLATTEVILLE    MOCLDY    74  65  74 W6        29.76R
$$

WIZ056-057-062-063-064-067-068-030500-
SOUTH CENTRAL WISCONSIN

CITY           SKY/WX    TMP DP  RH WIND       PRES   REMARKS
REEDSBURG      CLEAR     73  60  65 NW3       29.74R
BARABOO/DELLS  CLEAR     72  57  60 NW5       29.75R
LONE ROCK      CLEAR     74  61  63 NW8       29.74R
MINERAL POINT  PTCLDY    73  61  64 NW5       29.76R
MADISON        PTCLDY    72  62  71 NW5       29.72R
MIDDLETON      CLEAR     72  60  66 NW3       29.74R
WATERTOWN      PTCLDY    66  66 100 CALM      29.71R
MONROE         MOCLDY    75  61  60 NW8       29.75R
JANESVILLE     PTCLDY    77  63  61 NE7       29.71R
$$

WIZ051-052-058>065-066-070>072-030500-
SOUTHEAST WISCONSIN

CITY           SKY/WX    TMP DP  RH WIND       PRES   REMARKS
MILWAUKEE      CLOUDY    69  60  73 N6        29.69R
WAUKESHA       MOCLDY    68  54  60 CALM      29.73R
MILWAUKEE/TIMM MOCLDY    68  55  64 CALM      29.71S
RACINE         CLOUDY    69  63  81 NW7       29.71R
BURLINGTON     MOCLDY    69  59  72 CALM      29.72R
KENOSHA        CLOUDY    68  65  90 E5        29.72S
FOND DU LAC    MOCLDY    66  64  93 W5        29.71R
SHEBOYGAN      MOCLDY    65  61  87 MISG      29.68S
WEST BEND      PTCLDY    63  59  88 CALM      29.71R
JUNEAU         CLEAR     64  62  94 CALM      29.72S
$$

LSZ147-162-030500-
LAKE SUPERIOR

STATION/POSITION TIME  TEMP    WIND        PRES    WAVE
                       AIR SEA DIR/SP/G            HT/PER
                 (UTC) (F)     (DEG/KT/KT) (MB)    (FT/S)
W MID LAKE BUOY  0350   61 56  320/ 14/ 17 1005.1R   1
DEVILS ISLAND    0400   62     300/ 11/ 12 1006.6R
PORT WING        0300   65     240/  6/  8 1007.1R
SAXON HARBOR     0340   69                 1006.1R
$$

LMZ867-665-643>646-030500-
LAKE MICHIGAN

STATION/POSITION TIME  TEMP    WIND        PRES    WAVE
                       AIR SEA DIR/SP/G            HT/PER
                 (UTC) (F)     (DEG/KT/KT) (MB)    (FT/S)
CHAMBERS ISLAND  0300   66     230/  2/  4 1004.1F
S GREEN BAY BUOY 0400   67 69  270/  6/  8 1006.3R
N MID LAKE BUOY  0350   67 68  260/ 10/ 12 1003.2R   2/ 5
NORTHPORT PIER   0300   66     270/  4/  8 1004.1S
ALGOMA LAKESHORE 0342          320/  2/  4   N/A
KEWAUNEE LAKESHO 0300   63     290/  4/  5 1004.1R
SHEBOYGAN LAKESH 0400   68     290/  5/  6 1005.2R
PORT WASHINGTON  0300   68     300/  7/ 11 1005.8R
ATWATER BUOY     0400   62 46  310/  6/  6 1006.8S
MILWAUKEE LAKESH 0300   71     320/  7/ 10   N/A
KENOSHA   LAKESH 0400   69      CALM  /  3 1006.1R
$$

TC  - TEMPERATURE IN CELSIUS
VSB - VISIBILITY IN STATUTE MILES
WCI - WIND CHILL INDEX
HX  - HEAT INDEX




USA.gov is the U.S. government's official web portal to all federal, state and local government web resources and services.